OKEAN-0
1 25860U 99039A 11090.69439724 .00000319 00000-0 56320-4 0 2699
2 25860 097.8754 059.3110 0000651 073.2524 286.8756 14.73736141629249
NOAA-16
1 26536U 00055A 11090.23496504 -.00000152 00000-0 -56720-4 0 2432
2 26536 099.1480 119.1694 0009828 249.5525 110.4610 14.12603747542352
NOAA-17
1 27453U 02032A 11090.47796533 .00000108 00000-0 64888-4 0 2375
2 27453 098.3884 133.7248 0012029 021.8305 338.3384 14.24251326455594
NOAA-18
1 28654U 05018A 11090.40738435 .00000379 00000-0 23375-3 0 7196
2 28654 098.9881 041.3945 0013995 327.1036 032.9250 14.11454412301951
NOAA-19
1 33591U 09005A 11090.45833016 .00000426 00000-0 26051-3 0 9120
2 33591 098.8209 031.9420 0013847 193.1950 166.8848 14.11146750110428
HUBBLE
1 20580U 90037B 11089.34313701 .00001099 00000-0 70816-4 0 7370
2 20580 028.4694 171.4456 0003146 006.2292 353.8428 15.01235407947790
ISS
1 25544U 98067A 11090.89420299 .00039955 00000-0 29606-3 0 1050
2 25544 051.6463 197.5289 0002269 044.2550 057.5836 15.72489204708738
CO-58
1 28895U 05043F 11090.69489959 .00000503 00000-0 11390-3 0 8370
2 28895 097.9780 330.0326 0019165 104.5180 255.8195 14.60041740288934
FALCON
1 30776U 07006E 11089.47258695 .00001966 00000-0 14137-3 0 00724
2 30776 035.4323 105.4975 0000359 087.9535 272.1221 15.04278714223182
MAST
1 31126U 07012K 11089.91457985 .00000314 00000-0 80694-4 0 01227
2 31126 097.9030 121.5385 0095451 054.9600 306.0511 14.53698334209717
CAPE1
1 31130U 07012P 11090.44757944 .00000701 00000-0 17094-3 0 1403
2 31130 097.9061 118.9281 0103654 063.4445 297.7351 14.52325481209355
COMPASS
1 32787U 08021E 11089.70679061 .00001136 00000-0 14864-3 0 09484
2 32787 097.8539 154.9663 0016859 073.1640 287.1397 14.82231942157932
AAUSAT2
1 32788U 08021F 11089.74755040 .00001470 00000-0 18973-3 0 09386
2 32788 097.8543 155.2056 0016398 073.6321 286.6718 14.82403215157954
DO-64
1 32789U 08021G 11089.71199605 .00001987 00000-0 25198-3 0 09563
2 32789 097.8640 156.0336 0016424 073.2815 287.0188 14.82748647157954
CO-66
1 32791U 08021J 11090.65304170 .00000843 00000-0 11276-3 0 9399
2 32791 097.8557 155.8588 0017131 068.7849 291.5182 14.81958911158021
RS-30
1 32953U 08025A 11090.39516629 .00000010 00000-0 00000 0 0 5995
2 32953 082.5024 211.0736 0018920 193.0841 166.9749 12.43011288129421
TACSAT-3
1 35001U 09028A 11090.76264302 .00020312 00000-0 40329-3 0 5499
2 35001 040.4483 282.0948 0024719 351.9286 008.1207 15.46129347105088
PHARMSAT
1 35002U 09028B 11090.78326069 .00015846 00000-0 31536-3 0 5105
2 35002 040.4696 279.4622 0025808 356.6703 003.4072 15.46154006105112
HAWKSAT1
1 35003U 09028C 11090.74768261 .00056970 00000-0 79684-3 0 5644
2 35003 040.4562 260.4218 0022288 019.6327 340.5519 15.55613817105327
CP6
1 35004U 09028D 11089.86012998 .00066046 00000-0 82384-3 0 5674
2 35004 040.4584 260.5917 0022137 021.1843 338.9863 15.58618244105238
METEOR-M
1 35865U 09049A 11090.60211308 .00000176 00000-0 10000-3 0 2374
2 35865 098.7141 146.7047 0001607 259.2493 100.8504 14.21835823 79568
RS-38
1 35869U 09049E 11090.61155990 .00000177 00000-0 10000-3 0 2464
2 35869 098.7120 146.7546 0003850 255.1660 104.9067 14.22004209 79573
